Location: Cambroso
(45.2833°N, 12.0850°E)
Time: 16:09:55
(UTC+00:00)

Cosmos 1898 Rocket - Pass Details

Date: 21 January 2021
Orbit: 754 x 783 km, 74.0° (Epoch: 26 February)

Event Time Altitude Azimuth Distance (km) Brightness Sun altitude
Rises 17:39:56 0° 177° (S) 3,240 6.9 -16.8°
Reaches altitude 10° 17:42:26 10° 170° (S) 2,313 6.0 -17.2°
Maximum altitude 17:47:16 38° 103° (ESE) 1,155 3.9 -18.0°
Enters shadow 17:48:35 33° 70° (ENE) 1,279 4.1 -18.3°
